Challenge Cours la Province !

Les Côtes Du Dragon - Saint-Georges-Sur-Meuse (5.80 km)

dimanche 03 novembre 2019

Vous pouvez trouver Le classement original sur : www.otopservices.be  
CHALLENGE COURS LA PROVINCE
LES CÔTES DU DRAGON - SAINT-GEORGES-SUR-MEUSE
DISTANCE : 5.78 km
dimanche 03 novembre 2019
 
Place dos NOM Catégorie Pl/cat temps temps/km Vitesse
01:00:00              
1 1059 LOGAN PERIN SENIOR H 1 00:22:48 03:57 15.20
2 1035 TOM SEBA SENIOR H 2 00:23:51 04:08 14.53
3 1029 BENOIT POULET SENIOR H 3 00:23:51 04:08 14.53
4 1034 JOHAN GRIFNEE SENIOR H 4 00:24:49 04:18 13.96
5 1170 NICO RAUSIN SENIOR H 5 00:24:57 04:19 13.89
6 1065 KARIM COLINET SENIOR H 6 00:25:36 04:26 13.54
7 1043 DORIAN DEUSE SENIOR H 7 00:25:54 04:29 13.38
8 1075 NOAH DUSPEAUX SENIOR H 8 00:26:35 04:36 13.04
9 1028 CHRISTIAN FRANCK VETERAN 3 1 00:26:41 04:37 12.99
10 1010 LAURENT BONHOMME SENIOR H 9 00:27:05 04:41 12.80
11 1118 SIMON SCOHIER ESPOIR H 1 00:27:10 04:42 12.76
12 1099 KALID LAMCHACHTI VETERAN 1 1 00:27:15 04:43 12.72
13 1120 LIONEL JACQUES SENIOR H 10 00:27:18 04:44 12.69
14 1042 NOLAN DEUSE ESPOIR H 2 00:27:20 04:44 12.68
15 1063 ALEXANDRE LAHAYE SENIOR H 11 00:27:40 04:47 12.53
16 1097 RUDI FERET SENIOR H 12 00:27:51 04:49 12.44
17 1032 SERGE GILLET VÉTÉRAN 2 1 00:27:54 04:50 12.42
18 1167 MICHAEL PEETERS SENIOR H 13 00:28:12 04:53 12.29
19 1107 EDGAR BOURS ESPOIR H 3 00:28:21 04:54 12.22
20 1070 HUGO DE RORE VÉTÉRAN 2 2 00:29:07 05:02 11.90
21 1165 ELLEN FOURNEAU AINÉE 1 1 00:29:30 05:06 11.75
22 1138 MICHEL TERF VÉTÉRAN 2 3 00:29:35 05:07 11.71
23 1072 CHRISTIAN CUPPENS VÉTÉRAN 2 4 00:29:43 05:09 11.66
24 1040 THOMAS CORVERS SENIOR H 14 00:29:47 05:09 11.64
25 1083 TIM DEWALLET ESPOIR H 4 00:29:53 05:10 11.60
26 1041 NATACHA GAUSSIN SENIOR D 1 00:30:35 05:18 11.33
27 1002 PATRICK TIXHON VETERAN 1 2 00:31:33 05:28 10.98
28 1146 LUCA THOMAS ESPOIR H 5 00:31:37 05:28 10.96
29 1060 GREGORY ERNST SENIOR H 15 00:31:39 05:29 10.95
30 1082 LAURENCE BONHEMME AINÉE 1 2 00:31:55 05:32 10.86
31 1069 MAYA DUSSARD ESPOIR D 1 00:32:11 05:34 10.77
32 13 CHRISTIAN PARISSE VETERAN 1 3 00:32:24 05:37 10.70
33 1005 YVES HANQUET VÉTÉRAN 2 5 00:32:26 05:37 10.69
34 1036 ALEC CUEVAS SENIOR H 16 00:33:03 05:43 10.49
35 1050 CARLOS DE ALMEIDA VÉTÉRAN 2 6 00:33:10 05:45 10.45
36 1151 JEAN-LOU LANGE VÉTÉRAN 2 7 00:33:29 05:48 10.35
37 1136 MARINE TERF ESPOIR D 2 00:33:40 05:50 10.29
38 1055 DAVID VILCOT SENIOR H 17 00:33:41 05:50 10.29
39 1162 FABIEN LEPICARD SENIOR H 18 00:34:02 05:54 10.18
40 1137 LOUISE TERF ESPOIR D 3 00:34:03 05:54 10.18
41 1004 CALOGERO PIRO VETERAN 3 2 00:34:04 05:54 10.17
42 1017 NICOLAS GROSSI ESPOIR H 6 00:34:56 06:03 9.92
43 1018 MATHIAS GROSSI ESPOIR H 7 00:34:57 06:03 9.92
44 1122 CELIA BECO SENIOR D 2 00:35:17 06:07 9.82
45 1157 MARTINA ISABELLA AINÉE 1 3 00:35:24 06:08 9.79
46 1000 RUDY ROBBI VÉTÉRAN 4 1 00:35:37 06:10 9.73
47 1105 GEOFFREY DONY VETERAN 1 4 00:35:49 06:12 9.68
48 1111 ALFONSO CONTRERAS VETERAN 3 3 00:35:54 06:13 9.65
49 1153 HELOISE SCHALENBOURG SENIOR D 3 00:36:00 06:14 9.63
50 1031 MELIA ROQUET ESPOIR D 4 00:36:04 06:15 9.61
51 1156 CHRISTEL VANDERSMISSEN AINÉE 1 4 00:36:07 06:15 9.60
52 1092 NOAMI RAELAND SENIOR D 4 00:36:23 06:18 9.53
53 1093 GEERT ROELAND VETERAN 1 5 00:36:27 06:19 9.51
54 1066 LEANDRO GONZALEZ ESPOIR H 8 00:36:28 06:19 9.50
55 1054 AMELIE RAMELOT ESPOIR D 5 00:36:42 06:21 9.44
56 1124 MICHELE NATALIS AINÉE 2 1 00:36:42 06:21 9.44
57 1126 SOPHIE PEETERS SENIOR D 5 00:36:43 06:21 9.44
58 1052 NATHALIE THIOU AINÉE 1 5 00:36:57 06:24 9.38
59 1147 GEOFFREY THOMAS SENIOR H 19 00:37:17 06:27 9.30
60 1033 ANDRE WASSON VÉTÉRAN 2 8 00:37:18 06:27 9.29
61 1145 ALEXANDRE PUGLIESE SENIOR H 20 00:37:29 06:29 9.25
62 1061 GENEVIEVE TAMO AINÉE 2 2 00:37:37 06:31 9.21
63 1076 ANNA MAURISSEN SENIOR D 6 00:38:21 06:38 9.04
64 1117 RACHEL CENNE AINÉE 1 6 00:38:21 06:38 9.04
65 12 NATHALIE LUTHI AINÉE 1 7 00:38:54 06:44 8.91
66 1077 INGRID VANBRABANT SENIOR D 7 00:39:09 06:47 8.85
67 1152 PERRINE GIRAUDEAU SENIOR D 8 00:39:13 06:47 8.84
68 1135 SOPHIE LEONARD AINÉE 1 8 00:39:20 06:49 8.81
69 1128 ADELAIDE SEBA ESPOIR D 6 00:39:21 06:49 8.81
70 1039 VICTOR LEON VETERAN 3 4 00:39:23 06:49 8.80
71 1106 ESTELLE DONY ESPOIR D 7 00:39:25 06:49 8.79
72 349 FREDERIC NEVEN VETERAN 1 6 00:39:44 06:53 8.72
73 1169 ELIOT VROOMEN ESPOIR H 9 00:39:55 06:55 8.68
74 1012 MARIE-CLAIRE DENDAUW AINÉE 3 1 00:40:00 06:56 8.66
75 1057 NATHALIE BOUTIAU AINÉE 2 3 00:40:01 06:56 8.66
76 1140 AURELIE PUGLIESE SENIOR D 9 00:40:05 06:56 8.65
77 1141 CHRISTEL GOOSSENS SENIOR D 10 00:40:06 06:57 8.64
78 1127 VANESSA JANS AINÉE 1 9 00:40:15 06:58 8.61
79 1115 ANGELIQUE DRADIN AINÉE 1 10 00:40:16 06:58 8.61
80 1008 ROBERT DUPONT VETERAN 3 5 00:40:31 07:01 8.55
81 1030 PATRICK JURDAN VÉTÉRAN 2 9 00:40:33 07:01 8.55
82 563 OLIVIER JONET SENIOR H 21 00:40:47 07:04 8.50
83 1095 ERIC RIGUELLE VÉTÉRAN 2 10 00:41:13 07:08 8.41
84 1011 BÉATRICE PETITJEAN AINÉE 3 2 00:41:25 07:10 8.37
85 1168 JEAN-BAPTISTE DELVENNE SENIOR H 22 00:41:34 07:12 8.34
86 1089 DAMIEN JACOBS SENIOR H 23 00:41:36 07:12 8.33
87 1071 GERALD ROUCOURT VETERAN 1 7 00:41:36 07:12 8.33
88 1143 LOUISE BURRION SENIOR D 11 00:41:41 07:13 8.31
89 1046 PHILIPPE MAURISSEN VETERAN 1 8 00:41:42 07:13 8.31
90 1045 YASMINA HOUMEL AINÉE 1 11 00:41:43 07:13 8.31
91 1121 CELINE LELOUP SENIOR D 12 00:41:43 07:13 8.31
92 1142 SABINE KINZINGER AINÉE 1 12 00:41:47 07:14 8.29
93 1149 PAULINE FOULON SENIOR D 13 00:41:57 07:16 8.26
94 1073 FILIPA RODRIGUES SENIOR D 14 00:42:16 07:19 8.20
95 1074 OLIVIER KNAEPEN VETERAN 1 9 00:42:19 07:20 8.19
96 1154 EVA MATAGNE ESPOIR D 8 00:42:21 07:20 8.18
97 1003 ISABELLE WERY AINÉE 2 4 00:42:25 07:21 8.17
98 1109 ANGELIQUE MATHYS AINÉE 1 13 00:42:26 07:21 8.17
99 1159 FRANCIS MATAGNE VÉTÉRAN 4 2 00:42:30 07:21 8.15
100 1160 SANDRINE VAN ROOSBROECK AINÉE 1 14 00:42:47 07:24 8.10
101 1158 LAURA BANDURA SENIOR D 15 00:42:47 07:24 8.10
102 1161 STEPHANIE ROLAND SENIOR D 16 00:42:48 07:25 8.10
103 1113 MELISSA CONTRERAS SENIOR D 17 00:42:48 07:25 8.10
104 1053 PINO POLLARA VÉTÉRAN 2 11 00:42:51 07:25 8.09
105 1166 JULIE EVANS ESPOIR D 9 00:42:54 07:26 8.08
106 564 SYLVIE MAQUET AINÉE 2 5 00:42:59 07:27 8.06
107 55 FABIENNE PIETEUR AINÉE 2 6 00:43:17 07:30 8.01
108 54 NOÉMIE DEFRERE SENIOR D 18 00:43:32 07:32 7.96
109 1114 GUY ANDRIEN VÉTÉRAN 2 12 00:43:51 07:36 7.90
110 1130 KATJA CURATOW AINÉE 1 15 00:44:10 07:39 7.85
111 1123 MARIE-CHRISTINE DEPLUVREZ AINÉE 3 3 00:44:30 07:42 7.79
112 1037 PHILIPPE FOURNY VETERAN 3 6 00:44:30 07:42 7.79
113 1119 ALICE FERNANDEZ SENIOR D 19 00:44:41 07:44 7.76
114 1085 LAURENT NOULIN SENIOR H 24 00:44:46 07:45 7.74
115 1155 JESSICA GRASSO SENIOR D 20 00:44:48 07:45 7.74
116 1019 SERGE KIRCHNER VETERAN 3 7 00:45:10 07:49 7.67
117 1006 MARIE WARNIER SENIOR D 21 00:45:12 07:50 7.67
118 1027 MÉLANIE WARNIER SENIOR D 22 00:45:13 07:50 7.66
119 1102 AURELIE HAUBRECHTS SENIOR D 23 00:45:24 07:52 7.63
120 1016 JOHANNA LOCHT AINÉE 1 16 00:45:27 07:52 7.63
121 1086 MANON DEFLANDRE SENIOR D 24 00:45:29 07:52 7.62
122 1104 MAGALI LAMINE AINÉE 1 17 00:45:51 07:56 7.56
123 1068 CARMELINA ZAFFUTO AINÉE 1 18 00:46:02 07:58 7.53
124 1171 MARIE-CLAIRE SCHOMMER AINÉE 3 4 00:46:13 08:00 7.50
125 1164 CHRISTELLE DORMAL AINÉE 1 19 00:46:46 08:06 7.41
126 1163 AMANDINE FERONT SENIOR D 25 00:46:46 08:06 7.41
127 1084 PASCALE BELLEFROID AINÉE 2 7 00:47:12 08:10 7.34
128 1009 VERONIQUE MEYERS AINÉE 1 20 00:47:32 08:14 7.29
129 1110 PATRICK VLIEGEN VETERAN 1 10 00:48:05 08:19 7.21
130 1062 ISABELLE LEMAIRE AINÉE 2 8 00:48:14 08:21 7.19
131 1038 ANNE-MARIE LECLOU AINÉE 2 9 00:49:37 08:35 6.98
132 1129 JOELLE GRAINDOR AINÉE 3 5 00:49:52 08:38 6.95
133 1116 RENE ISTA VÉTÉRAN 4 3 00:49:53 08:38 6.95
134 1094 CHRISTIAN HAUTECLER VETERAN 3 8 00:51:41 08:57 6.71
135 1150 DAVID BECQUEVORT SENIOR H 25 00:53:56 09:20 6.43
136 1020 GAELLE RALLU AINÉE 1 21 00:55:24 09:35 6.26
137 1007 CLAUDINE GERARD AINÉE 2 10 00:55:24 09:35 6.26
138 1088 EMILIE MOREAU SENIOR D 26 01:04:36 11:11 5.36
139 1132 MOUNTASSIR SIHAM SENIOR D 27 01:05:35 11:21 5.28
140 1090 VANESSA PETEUX SENIOR D 28 01:07:13 11:38 5.16